Regional Weather Roundup
Issued by NWS

Home | Current Version | Previous Version | Graphics & Text | Print | Product List | Glossary On
Versions: 1 2 3 4 5 6 7 8 9 10 11 12 13 14 15 16 17 18 19 20 21 22 23 24 25 26 27 28 29 30 31 32 33 34 35 36 37 38 39 40 41 42 43 44 45 46 47 48 49 50
000
ASUS45 KBOI 080710
RWRID

IDAHO REGIONAL WEATHER ROUNDUP
NATIONAL WEATHER SERVICE BOISE ID
1200 AM MST MON FEB 08 2016

NOTE: "FAIR" INDICATES FEW OR NO CLOUDS BELOW 12000 FEET
WITH NO SIGNIFICANT WEATHER AND/OR OBSTRUCTIONS TO VISIBILITY

IDZ012-014-080800-
SOUTHWEST IDAHO


CITY           SKY/WX    TMP DP  RH WIND       PRES   REMARKS
BOISE          CLEAR     33  30  88 SE8       30.67R WCI  26
CALDWELL       CLEAR     32  30  92 S3        30.69R
MOUNTAIN HOME  CLEAR     30  30 100 E8        30.67R WCI  22
$$

IDZ016-017-080800-
SOUTHCENTRAL IDAHO


CITY           SKY/WX    TMP DP  RH WIND       PRES   REMARKS
BURLEY         FOG       24  24 100 NE7       30.65R VSB 1/2 WCI  16
JEROME         CLEAR     26  23  88 NE10      30.65S WCI  16
TWIN FALLS     CLEAR     34  30  85 S9        30.64S WCI  27
$$

IDZ019>023-080800-
SOUTHEAST IDAHO


CITY           SKY/WX    TMP DP  RH WIND       PRES   REMARKS
IDAHO FALLS    CLOUDY    21  19  92 NW10      30.67R FOG     WCI  10
POCATELLO      FOG       23  22  96 N3        30.68R VSB 1/4
REXBURG        FOG       22  22 100 W3        30.67R VSB 1/4
$$

IDZ006-010-011-018-031-032-080800-
CENTRAL IDAHO MOUNTAINS


CITY           SKY/WX    TMP DP  RH WIND       PRES   REMARKS
MCCALL         FOG       18  16  92 CALM      30.64R VSB 1/4
HAILEY         PTCLDY    23  18  80 NW7       30.63S WCI  15
STANLEY          N/A     14   9  80 E3        30.68R
SALMON         CLOUDY    18  12  79 CALM      30.70R
CHALLIS        CLEAR     12   7  80 CALM      30.66S
$$

IDZ002-004-006-007-026-080800-
NORTHERN IDAHO


CITY           SKY/WX    TMP DP  RH WIND       PRES   REMARKS
LEWISTON       CLEAR     37  31  78 SE3       30.64R
LOWELL           N/A     37  34  89 N3        30.71S
COEUR D`ALENE  CLEAR     34  28  80 NE9       30.61S WCI  26
MULLAN PASS    PTCLDY    29  18  63 W6        30.55R WCI  23
$$



USA.gov is the U.S. government's official web portal to all federal, state and local government web resources and services.